Springfield, MO

11:14 AM CDT on June 25, 2017 (GMT -0500)
Springfield-Branson Regional

Weather History for KSGF - July, 2012

Change the Weather History Date:

Wednesday, July 18, 2012

  Actual Average Record
Temperature  
Mean Temperature 88 °F 78 °F  
Max Temperature 101 °F 89 °F 108 °F (1954)
Min Temperature 74 °F 68 °F 53 °F (1984)
Degree Days  
Heating Degree Days 0 0  
Month to date heating degree days 0 0  
Since 1 June heating degree days 8 9  
Since 1 July heating degree days 0 0  
Cooling Degree Days 23 13  
Month to date cooling degree days 325 229  
Year to date cooling degree days 929 607  
Since 1 June cooling degree days 669 492  
Growing Degree Days 36 (Base 50)    
Moisture  
Dew Point 61 °F    
Average Humidity 44    
Maximum Humidity 64    
Minimum Humidity 24    
Precipitation  
Precipitation 0.00 in 0.11 in 2.55 in (1893)
Month to date precipitation 0.32 2.32  
Year to date precipitation 15.40 25.20  
Snow  
Snow 0.00 in - - ()
Month to date snowfall 0.0  
Since 1 June snowfall 0.0  
Since 1 July snowfall 0.0  
Snow Depth 0.00 in    
Sea Level Pressure  
Sea Level Pressure 29.92 in    
Wind  
Wind Speed 8 mph (SW)    
Max Wind Speed 18 mph    
Max Gust Speed 26 mph    
Visibility 10 miles    
Events      
T = Trace of Precipitation, MM = Missing Value Source: NWS Daily Summary

Daily Weather History Graph

Daily Weather History Graph

Search for Another Location

Airport or City:

Trip Planner

Search our weather history database for the weather conditions in past years. The results will help you decide how hot, cold, wet, or windy it might be!

Date:

Astronomy

Jul. 18, 2012 Rise Set
Actual Time 6:07 AM CDT 8:31 PM CDT
Civil Twilight 5:37 AM CDT 9:01 PM CDT
Nautical Twilight 5:00 AM CDT 9:38 PM CDT
Astronomical Twilight 4:20 AM CDT 10:18 PM CDT
Moon 5:41 AM CDT (7/18) 8:03 PM CDT (7/18)
Length of Visible Light 15h 23m
Length of Day
14h 24m
Waning Crescent, 0% of the Moon is Illuminated
Jul 18
Waning Crescent
Jul 18
New
Jul 26
First Quarter
Aug 1
Full
Aug 9
Last Quarter

Hourly Weather History & Observations

Time (CDT) Temp. Heat Index Dew Point Humidity Pressure Visibility Wind Dir Wind Speed Gust Speed Precip Events Conditions
12:52 AM 79.0 °F - 62.1 °F 56% 29.90 in 10.0 mi SSW 6.9 mph - N/A   Clear
1:52 AM 77.0 °F - 63.0 °F 62% 29.90 in 10.0 mi South 5.8 mph - N/A   Clear
2:52 AM 75.9 °F - 63.0 °F 64% 29.90 in 10.0 mi SW 5.8 mph - N/A   Clear
3:52 AM 75.9 °F - 63.0 °F 64% 29.90 in 10.0 mi SW 6.9 mph - N/A   Clear
4:52 AM 75.0 °F - 63.0 °F 66% 29.92 in 10.0 mi SW 5.8 mph - N/A   Clear
5:52 AM 75.9 °F - 63.0 °F 64% 29.93 in 10.0 mi SW 9.2 mph - N/A   Clear
6:52 AM 77.0 °F - 64.0 °F 64% 29.95 in 10.0 mi SW 8.1 mph - N/A   Clear
7:52 AM 82.0 °F 83.8 °F 64.9 °F 56% 29.96 in 10.0 mi SW 11.5 mph - N/A   Clear
8:52 AM 86.0 °F 88.2 °F 66.0 °F 51% 29.99 in 10.0 mi WSW 12.7 mph - N/A   Clear
9:52 AM 88.0 °F 89.6 °F 64.9 °F 46% 29.99 in 10.0 mi West 15.0 mph 19.6 mph N/A   Clear
10:52 AM 91.0 °F 93.0 °F 64.9 °F 42% 29.98 in 10.0 mi West 10.4 mph - N/A   Clear
11:52 AM 93.9 °F 95.2 °F 63.0 °F 36% 29.97 in 10.0 mi SW 11.5 mph 18.4 mph N/A   Partly Cloudy
12:52 PM 96.1 °F 96.0 °F 60.1 °F 30% 29.96 in 10.0 mi SSW 9.2 mph 18.4 mph N/A   Partly Cloudy
1:52 PM 97.0 °F 96.1 °F 57.9 °F 27% 29.94 in 10.0 mi SSW 13.8 mph 19.6 mph N/A   Scattered Clouds
2:52 PM 96.1 °F 95.6 °F 59.0 °F 29% 29.92 in 10.0 mi South 10.4 mph - N/A   Partly Cloudy
3:52 PM 97.0 °F 95.7 °F 57.0 °F 26% 29.90 in 10.0 mi WSW 6.9 mph 16.1 mph N/A   Partly Cloudy
4:52 PM 97.0 °F 95.3 °F 55.9 °F 25% 29.88 in 10.0 mi SSW 12.7 mph 20.7 mph N/A   Scattered Clouds
5:52 PM 99.0 °F 97.7 °F 55.9 °F 24% 29.87 in 10.0 mi SW 8.1 mph - N/A   Clear
6:52 PM 98.1 °F 96.8 °F 57.0 °F 25% 29.85 in 10.0 mi SW 8.1 mph - N/A   Clear
7:52 PM 95.0 °F 93.7 °F 57.0 °F 28% 29.85 in 10.0 mi West 6.9 mph - N/A   Clear
8:52 PM 88.0 °F 87.1 °F 59.0 °F 37% 29.88 in 10.0 mi WSW 3.5 mph - N/A   Clear
9:52 PM 82.0 °F 82.4 °F 60.1 °F 47% 29.91 in 10.0 mi SSW 4.6 mph - N/A   Clear
10:52 PM 81.0 °F 81.7 °F 61.0 °F 50% 29.93 in 10.0 mi Calm Calm - N/A   Clear
11:52 PM 80.1 °F 80.9 °F 60.1 °F 50% 29.92 in 10.0 mi South 4.6 mph - N/A   Clear